Home   Weather   Fürth   Past weeks

Flag for Germany Past Weather in Fürth, Bavaria, Germany — Yesterday and Last 2 Weeks

Now
27 °F

Ice fog.


Feels Like: 20 °F
Forecast: 24 / 39 °F
Wind: 6 mph from East

Location: Nuernberg

Current Time: Dec 7, 2016 at 9:58:32 am

Latest Report: Dec 7, 2016 at 9:20 am


Visibility: 3 mi

Pressure: 30.57 "Hg

Humidity: 100%

Dew Point: 27 °F

Location of FürthLocation

Past Weather in Fürth — Graph

°F

Fürth Temperature Yesterday

Maximum temperature yesterday: 30 °F (at 10:50 am)
Minimum temperature yesterday: 27 °F (at 10:50 pm)
Average temperature yesterday: 29 °F

High & Low Weather Summary for the Past Weeks

 TemperatureHumidityPressure
High55 °F (Nov 23, 12:20 pm)100% (Nov 22, 7:50 pm)30.57 "Hg (Nov 22, 7:50 pm)
Low16 °F (Nov 30, 4:20 am)51% (Nov 29, 3:50 pm)29.86 "Hg (Nov 22, 8:20 am)
Average35 °F88%30.24 "Hg
* Reported Nov 22 8:20 am — Dec 7 8:20 am, Fürth, Weather by CustomWeather, © 2016

Note: Actual official high and low records may vary slightly from our data, if they occured in-between our weather recording intervals... More about our weather records

Advertising

Fürth Weather History for the Previous 24 Hours

Scroll right to see more
 ConditionsComfort  
Time TempWeatherWind HumidityBarometerVisibility
8:20 am
Wed, Dec 7
27 °FIce fog.6 mph100%30.57 "Hg2 mi
7:50 am27 °FIce fog.7 mph100%30.57 "Hg2 mi
7:20 am27 °FIce fog.7 mph100%30.57 "Hg2 mi
6:50 am27 °FIce fog.5 mph93%30.57 "Hg2 mi
6:20 am27 °FIce fog.6 mph93%30.54 "Hg2 mi
5:50 am27 °FIce fog.7 mph93%30.57 "Hg1 mi
5:20 am27 °FIce fog.7 mph93%30.57 "Hg1 mi
4:50 am27 °FIce fog.6 mph100%30.57 "Hg1 mi
4:20 am27 °FIce fog.5 mph100%30.57 "Hg1 mi
3:50 am27 °FIce fog.7 mph100%30.54 "Hg1 mi
3:20 am27 °FIce fog.5 mph100%30.57 "Hg1 mi
2:50 am27 °FIce fog.6 mph100%30.57 "Hg1 mi
2:20 am27 °FIce fog.6 mph100%30.57 "Hg1 mi
1:50 am27 °FIce fog.6 mph100%30.54 "Hg1 mi
1:20 am27 °FIce fog.5 mph100%30.54 "Hg1 mi
12:50 am27 °FIce fog.6 mph100%30.54 "Hg1 mi
12:20 am27 °FIce fog.6 mph100%30.54 "Hg2 mi
11:50 pm
Tue, Dec 6
27 °FIce fog.6 mph100%30.54 "Hg2 mi
11:20 pm27 °FIce fog.7 mph100%30.54 "Hg2 mi
10:50 pm27 °FIce fog.3 mph100%30.54 "Hg2 mi
10:20 pm28 °FIce fog.5 mph93%30.54 "Hg2 mi
9:50 pm28 °FIce fog.5 mph93%30.54 "Hg2 mi
9:20 pm28 °FIce fog.3 mph93%30.54 "Hg2 mi
8:50 pm28 °FIce fog.3 mph93%30.54 "Hg2 mi
8:20 pm28 °FIce fog.5 mph93%30.54 "Hg2 mi
7:50 pm28 °FIce fog.3 mph100%30.54 "Hg3 mi
6:50 pm28 °FIce fog.3 mph100%30.51 "Hg3 mi
6:20 pm28 °FIce fog.1 mph100%30.51 "Hg3 mi
5:50 pm28 °FIce fog.2 mph100%30.51 "Hg3 mi
5:20 pm28 °FIce fog.3 mph100%30.51 "Hg3 mi
4:50 pm28 °FIce fog.2 mph100%30.51 "Hg2 mi
4:20 pm30 °FIce fog.3 mph93%30.51 "Hg2 mi
3:50 pm30 °FIce fog.1 mph93%30.48 "Hg2 mi
3:20 pm30 °FIce fog.3 mph93%30.48 "Hg1 mi
2:50 pm30 °FIce fog.2 mph93%30.48 "Hg1 mi
2:20 pm30 °FIce fog.1 mph93%30.48 "Hg1 mi
1:50 pm30 °FIce fog.No wind93%30.45 "Hg1 mi
1:20 pm30 °FIce fog.No wind93%30.45 "Hg1 mi
12:50 pm30 °FIce fog.2 mph93%30.45 "Hg1 mi
12:20 pm30 °FIce fog.2 mph93%30.45 "Hg1 mi
11:50 am30 °FIce fog.No wind93%30.45 "Hg2 mi
11:20 am30 °FIce fog.No wind100%30.45 "Hg1 mi
10:50 am30 °FIce fog.1 mph100%30.45 "Hg1 mi
10:20 am28 °FIce fog.No wind100%30.45 "Hg1 mi
9:50 am28 °FIce fog.1 mph100%30.45 "Hg1 mi
9:20 am28 °FIce fog.2 mph100%30.45 "Hg1 mi
Weather by CustomWeather, © 2016

See weather overviewHow to use our weather pages